Pontiac, IL

7:24 PM CDT on April 24, 2017 (GMT -0500)
Pontiac Municipal

Weather History for KPNT - April, 2013

Change the Weather History Date:

Friday, April 12, 2013

  Actual Average Record
Temperature  
Mean Temperature 40 °F -  
Max Temperature 44 °F 61 °F 91 °F (1930)
Min Temperature 37 °F 38 °F 21 °F (1957)
Degree Days  
Heating Degree Days 24    
Moisture  
Dew Point 35 °F    
Average Humidity 80    
Maximum Humidity 93    
Minimum Humidity 70    
Precipitation  
Precipitation 0.00 in - - ()
Sea Level Pressure  
Sea Level Pressure 29.74 in    
Wind  
Wind Speed 15 mph (WSW)    
Max Wind Speed 29 mph    
Max Gust Speed 32 mph    
Visibility 10 miles    
Events Rain    
Averages and records for this station are not official NWS values.
T = Trace of Precipitation, MM = Missing Value Source: NWS Daily Summary

Daily Weather History Graph

Daily Weather History Graph

Search for Another Location

Airport or City:

Trip Planner

Search our weather history database for the weather conditions in past years. The results will help you decide how hot, cold, wet, or windy it might be!

Date:

Astronomy

Apr. 12, 2013 Rise Set
Actual Time 6:19 AM CDT 7:31 PM CDT
Civil Twilight 5:51 AM CDT 7:59 PM CDT
Nautical Twilight 5:17 AM CDT 8:33 PM CDT
Astronomical Twilight 4:42 AM CDT 9:09 PM CDT
Moon 7:28 AM CDT (4/12) 10:03 PM CDT (4/12)
Length of Visible Light 14h 08m
Length of Day
13h 11m
Waxing Crescent, 5% of the Moon is Illuminated
Apr 12
Waxing Crescent
Apr 18
First Quarter
Apr 25
Full
May 2
Last Quarter
May 9
New

Hourly Weather History & Observations

Time (CDT) Temp. Windchill Dew Point Humidity Pressure Visibility Wind Dir Wind Speed Gust Speed Precip Events Conditions
12:15 AM 41.0 °F 33.5 °F 35.6 °F 81% 29.65 in 10.0 mi WSW 13.8 mph - N/A   Overcast
12:35 AM 39.2 °F 30.2 °F 33.8 °F 81% 29.65 in 10.0 mi West 17.3 mph - N/A   Overcast
12:55 AM 39.2 °F 32.5 °F 33.8 °F 81% 29.65 in 10.0 mi WSW 10.4 mph - N/A   Overcast
1:15 AM 39.2 °F 32.0 °F 35.6 °F 87% 29.65 in 10.0 mi West 11.5 mph - N/A   Overcast
1:35 AM 39.2 °F 30.8 °F 33.8 °F 81% 29.65 in 10.0 mi West 15.0 mph - N/A   Overcast
1:55 AM 39.2 °F 30.5 °F 33.8 °F 81% 29.64 in 10.0 mi West 16.1 mph 19.6 mph N/A   Overcast
2:15 AM 39.2 °F 31.6 °F 32.0 °F 75% 29.64 in 10.0 mi West 12.7 mph - N/A   Overcast
2:35 AM 39.2 °F 33.0 °F 33.8 °F 81% 29.64 in 10.0 mi WSW 9.2 mph - N/A   Overcast
2:55 AM 39.2 °F 31.6 °F 33.8 °F 81% 29.63 in 10.0 mi West 12.7 mph - N/A   Overcast
3:15 AM 39.2 °F 32.0 °F 33.8 °F 81% 29.63 in 10.0 mi WSW 11.5 mph - N/A   Overcast
3:35 AM 39.2 °F 31.6 °F 33.8 °F 81% 29.63 in 10.0 mi WSW 12.7 mph - N/A   Overcast
3:55 AM 37.4 °F 29.8 °F 33.8 °F 87% 29.63 in 10.0 mi WSW 11.5 mph - N/A   Overcast
4:15 AM 37.4 °F 29.3 °F 33.8 °F 87% 29.63 in 10.0 mi WSW 12.7 mph - N/A   Overcast
4:35 AM 37.4 °F 29.3 °F 33.8 °F 87% 29.63 in 10.0 mi WSW 12.7 mph - N/A   Overcast
4:55 AM 37.4 °F 30.3 °F 33.8 °F 87% 29.62 in 10.0 mi WSW 10.4 mph - N/A   Overcast
5:15 AM 37.4 °F 29.8 °F 33.8 °F 87% 29.62 in 10.0 mi WSW 11.5 mph - N/A   Overcast
5:55 AM 37.4 °F 30.8 °F 33.8 °F 87% 29.62 in 10.0 mi WSW 9.2 mph - N/A   Overcast
6:35 AM 39.2 °F 32.0 °F 33.8 °F 81% 29.63 in 10.0 mi SW 11.5 mph - N/A   Overcast
6:55 AM 39.2 °F 32.5 °F 33.8 °F 81% 29.64 in 10.0 mi SW 10.4 mph - N/A   Overcast
7:15 AM 39.2 °F 33.0 °F 35.6 °F 87% 29.65 in 10.0 mi SW 9.2 mph - N/A   Overcast
7:35 AM 39.2 °F 33.0 °F 35.6 °F 87% 29.66 in 10.0 mi SW 9.2 mph - N/A   Overcast
7:55 AM 39.2 °F 32.0 °F 35.6 °F 87% 29.66 in 10.0 mi SW 11.5 mph 17.3 mph N/A   Overcast
8:15 AM 39.2 °F 30.2 °F 35.6 °F 87% 29.66 in 10.0 mi SW 17.3 mph 20.7 mph N/A   Overcast
8:55 AM 39.2 °F 29.8 °F 35.6 °F 87% 29.66 in 4.0 mi SW 18.4 mph 23.0 mph N/A   Drizzle
9:15 AM 39.2 °F 30.2 °F 35.6 °F 87% 29.66 in 5.0 mi SW 17.3 mph 23.0 mph N/A Rain Light Rain
9:35 AM 39.2 °F 31.2 °F 37.4 °F 93% 29.67 in 7.0 mi SW 13.8 mph 23.0 mph N/A   Overcast
10:15 AM 41.0 °F 32.2 °F 37.4 °F 87% 29.67 in 10.0 mi SW 18.4 mph 25.3 mph N/A   Overcast
10:35 AM 42.8 °F 34.0 °F 35.6 °F 76% 29.68 in 10.0 mi WSW 20.7 mph 24.2 mph N/A   Overcast
10:55 AM 42.8 °F 34.0 °F 35.6 °F 76% 29.69 in 10.0 mi WSW 20.7 mph 25.3 mph N/A   Overcast
11:15 AM 42.8 °F 34.5 °F 35.6 °F 76% 29.70 in 10.0 mi WSW 18.4 mph 25.3 mph N/A   Overcast
11:35 AM 42.8 °F 34.3 °F 35.6 °F 76% 29.70 in 10.0 mi WSW 19.6 mph 25.3 mph N/A   Overcast
11:55 AM 42.8 °F 35.1 °F 37.4 °F 81% 29.71 in 7.0 mi WSW 16.1 mph 24.2 mph N/A   Overcast
12:15 PM 42.8 °F 33.3 °F 37.4 °F 81% 29.71 in 7.0 mi WSW 24.2 mph 27.6 mph N/A Rain Light Rain
12:35 PM 42.8 °F 33.8 °F 37.4 °F 81% 29.71 in 10.0 mi WSW 21.9 mph 28.8 mph N/A   Overcast
12:55 PM 42.8 °F 33.3 °F 37.4 °F 81% 29.71 in 10.0 mi WSW 24.2 mph 28.8 mph N/A   Overcast
1:15 PM 42.8 °F 32.5 °F 37.4 °F 81% 29.71 in 10.0 mi WSW 28.8 mph 32.2 mph N/A   Overcast
1:35 PM 42.8 °F 33.1 °F 37.4 °F 81% 29.73 in 10.0 mi WSW 25.3 mph 29.9 mph N/A   Overcast
1:55 PM 42.8 °F 33.1 °F 37.4 °F 81% 29.74 in 10.0 mi WSW 25.3 mph 28.8 mph N/A   Overcast
2:15 PM 42.8 °F 34.5 °F 37.4 °F 81% 29.75 in 10.0 mi WSW 18.4 mph 28.8 mph N/A   Overcast
3:15 PM 44.6 °F 35.7 °F 37.4 °F 76% 29.76 in 10.0 mi WSW 24.2 mph 28.8 mph N/A   Overcast
3:35 PM 44.6 °F 36.4 °F 37.4 °F 76% 29.77 in 10.0 mi WSW 20.7 mph 27.6 mph N/A   Overcast
3:55 PM 44.6 °F 37.2 °F 37.4 °F 76% 29.78 in 10.0 mi West 17.3 mph 24.2 mph N/A   Overcast
4:35 PM 42.8 °F 34.0 °F 35.6 °F 76% 29.80 in 10.0 mi West 20.7 mph 27.6 mph N/A   Overcast
4:55 PM 42.8 °F 33.8 °F 35.6 °F 76% 29.81 in 10.0 mi West 21.9 mph 27.6 mph N/A   Overcast
5:15 PM 42.8 °F 34.3 °F 35.6 °F 76% 29.82 in 10.0 mi West 19.6 mph 26.5 mph N/A   Overcast
5:35 PM 42.8 °F 34.0 °F 35.6 °F 76% 29.83 in 10.0 mi West 20.7 mph 24.2 mph N/A   Overcast
5:55 PM 42.8 °F 33.8 °F 33.8 °F 70% 29.84 in 10.0 mi West 21.9 mph 27.6 mph N/A   Overcast
6:15 PM 42.8 °F 34.5 °F 33.8 °F 70% 29.85 in 10.0 mi West 18.4 mph 31.1 mph N/A   Overcast
6:35 PM 42.8 °F 35.8 °F 33.8 °F 70% 29.85 in 10.0 mi West 13.8 mph - N/A   Overcast
6:55 PM 42.8 °F 35.4 °F 33.8 °F 70% 29.85 in 10.0 mi West 15.0 mph - N/A   Overcast
7:15 PM 42.8 °F 36.6 °F 33.8 °F 70% 29.85 in 10.0 mi West 11.5 mph - N/A   Overcast
7:35 PM 42.8 °F 37.5 °F 35.6 °F 76% 29.86 in 10.0 mi West 9.2 mph - N/A   Overcast
7:55 PM 42.8 °F 38.6 °F 35.6 °F 76% 29.86 in 10.0 mi West 6.9 mph - N/A   Overcast
8:15 PM 42.8 °F 37.5 °F 35.6 °F 76% 29.86 in 10.0 mi West 9.2 mph - N/A   Overcast
8:35 PM 42.8 °F 37.5 °F 35.6 °F 76% 29.87 in 10.0 mi West 9.2 mph - N/A   Overcast
8:55 PM 42.8 °F 38.0 °F 35.6 °F 76% 29.87 in 10.0 mi West 8.1 mph - N/A   Overcast
9:15 PM 42.8 °F 38.6 °F 35.6 °F 76% 29.88 in 10.0 mi WSW 6.9 mph - N/A   Overcast
9:35 PM 42.8 °F 37.5 °F 35.6 °F 76% 29.88 in 10.0 mi WSW 9.2 mph - N/A   Overcast
9:55 PM 42.8 °F 34.8 °F 35.6 °F 76% 29.88 in 10.0 mi West 17.3 mph 24.2 mph N/A   Overcast
10:15 PM 42.8 °F 35.8 °F 35.6 °F 76% 29.89 in 10.0 mi West 13.8 mph - N/A   Overcast
10:35 PM 42.8 °F 36.2 °F 35.6 °F 76% 29.89 in 10.0 mi West 12.7 mph - N/A   Overcast
10:55 PM 42.8 °F 36.6 °F 35.6 °F 76% 29.89 in 10.0 mi West 11.5 mph - N/A   Overcast
11:15 PM 41.0 °F 33.5 °F 35.6 °F 81% 29.89 in 10.0 mi West 13.8 mph - N/A   Overcast
11:35 PM 41.0 °F 31.9 °F 33.8 °F 76% 29.90 in 10.0 mi West 19.6 mph - N/A   Overcast
11:55 PM 41.0 °F 33.5 °F 33.8 °F 76% 29.90 in 10.0 mi West 13.8 mph - N/A   Overcast